Location: Newark
(48.9886°N, 1.2358°E)
Time: 14:42:28
(UTC+00:00)

A-11 Canister half - All Passes

Search period start: 22 November 2019 00:00
Search period end: 02 December 2019 00:00
Orbit: 1527 x 1682 km, 47.3° (Epoch: 21 November)

Date Brightness Start Highest point End Pass type
(mag) Time Alt. Az. Time Alt. Az. Time Alt. Az.
22 Nov - 09:29:13 10° S 09:37:17 28° SE 09:45:11 10° E daylight
22 Nov - 11:31:15 10° SW 11:41:05 63° SSE 11:50:40 10° ENE daylight
22 Nov - 13:35:57 10° W 13:45:56 82° S 13:55:35 10° E daylight
22 Nov - 15:41:08 10° WNW 15:50:46 64° SSW 16:00:04 10° SE daylight
22 Nov - 17:46:41 10° W 17:54:30 29° SW 18:02:08 10° S visible
23 Nov - 09:07:48 10° S 09:15:42 27° SE 09:23:29 10° E daylight
23 Nov - 11:09:38 10° SW 11:19:28 61° SSE 11:29:01 10° ENE daylight
23 Nov - 13:14:17 10° W 13:24:17 82° S 13:33:57 10° E daylight
23 Nov - 15:19:27 10° W 15:29:09 66° SSW 15:38:30 10° ESE daylight
23 Nov - 17:24:58 10° W 17:32:57 30° SW 17:40:44 10° SSE visible
24 Nov - 08:46:24 10° S 08:54:08 26° SE 09:01:45 10° E daylight
24 Nov - 10:48:01 10° SW 10:57:50 60° SSE 11:07:24 10° ENE daylight
24 Nov - 12:52:36 10° W 13:02:38 82° S 13:12:20 10° E daylight
24 Nov - 14:57:47 10° W 15:07:32 67° SSW 15:16:55 10° ESE daylight
24 Nov - 17:03:15 10° W 17:11:23 32° SW 17:19:20 10° SSE visible
25 Nov - 08:25:01 10° S 08:32:33 25° SE 08:40:01 10° E daylight
25 Nov - 10:26:25 10° SW 10:36:12 58° SSE 10:45:46 10° ENE daylight
25 Nov - 12:30:56 10° W 12:40:59 82° S 12:50:42 10° E daylight
25 Nov - 14:36:07 10° W 14:45:54 69° SSW 14:55:21 10° ESE daylight
25 Nov - 16:41:31 10° WNW 16:49:50 33° SW 16:57:55 10° SSE visible
26 Nov - 08:03:39 10° S 08:11:00 23° SE 08:18:15 10° E daylight
26 Nov - 10:04:49 10° SW 10:14:35 56° SSE 10:24:07 10° ENE daylight
26 Nov - 12:09:15 10° W 12:19:19 81° S 12:29:04 10° E daylight
26 Nov - 14:14:26 10° W 14:24:16 70° SSW 14:33:45 10° ESE daylight
26 Nov - 16:19:49 10° WNW 16:28:16 35° SW 16:36:30 10° SSE visible
27 Nov - 07:42:19 10° S 07:49:26 22° SE 07:56:29 10° E daylight
27 Nov - 09:43:13 10° SW 09:52:58 55° SSE 10:02:29 10° ENE daylight
27 Nov - 11:47:34 10° WSW 11:57:40 81° S 12:07:26 10° E daylight
27 Nov - 13:52:45 10° W 14:02:38 71° SSW 14:12:10 10° ESE daylight
27 Nov - 15:58:06 10° WNW 16:06:42 36° SW 16:15:03 10° SSE daylight
28 Nov - 07:21:00 10° S 07:27:53 21° SE 07:34:41 10° E daylight
28 Nov - 09:21:39 10° SW 09:31:20 53° SSE 09:40:50 10° ENE daylight
28 Nov - 11:25:55 10° WSW 11:36:01 81° S 11:45:49 10° E daylight
28 Nov - 13:31:05 10° W 13:41:01 73° SSW 13:50:35 10° ESE daylight
28 Nov - 15:36:24 10° WNW 15:45:07 38° SW 15:53:36 10° SSE daylight
28 Nov - 17:46:48 10° WSW 17:47:47 10° WSW 17:48:46 10° SW visible
29 Nov - 06:59:43 10° S 07:06:19 20° SE 07:12:52 10° E daylight
29 Nov - 09:00:04 10° SW 09:09:43 52° SSE 09:19:11 10° ENE daylight
29 Nov - 11:04:14 10° WSW 11:14:21 80° S 11:24:11 10° E daylight
29 Nov - 13:09:24 10° W 13:19:22 74° SSW 13:28:58 10° ESE daylight
29 Nov - 15:14:42 10° WNW 15:23:33 40° SW 15:32:08 10° SSE daylight
29 Nov - 17:23:46 10° WSW 17:26:17 11° WSW 17:28:47 10° SW visible
30 Nov - 06:38:26 10° SSE 06:44:46 19° SE 06:51:03 10° E visible
30 Nov - 08:38:29 10° SW 08:48:05 50° SSE 08:57:33 10° ENE daylight
30 Nov - 10:42:34 10° WSW 10:52:41 79° S 11:02:32 10° E daylight
30 Nov - 12:47:43 10° W 12:57:44 75° SSW 13:07:22 10° ESE daylight
30 Nov - 14:53:00 10° WNW 15:01:58 41° SW 15:10:40 10° SSE daylight
30 Nov - 17:01:23 10° W 17:04:46 12° WSW 17:08:08 10° SW visible
01 Dec - 06:17:12 10° SSE 06:23:13 18° SE 06:29:11 10° E visible
01 Dec - 08:16:56 10° SW 08:26:28 49° SSE 08:35:53 10° ENE daylight
01 Dec - 10:20:54 10° WSW 10:31:02 79° S 10:40:55 10° E daylight
01 Dec - 12:26:03 10° W 12:36:05 76° SSW 12:45:46 10° ESE daylight
01 Dec - 14:31:19 10° WNW 14:40:23 43° SW 14:49:11 10° SSE daylight
01 Dec - 16:39:12 10° W 16:43:16 13° WSW 16:47:17 10° SSW visible
